Stations météo

réclame
Mon MeteoGroup
Aubenas, France (7570): Température de l'air & dewpoint: 12.01.2020 02:00:00 - 18.01.2020 02:00:00 (CET)Aubenas, France (7570): Température de l'air 5cm: 12.01.2020 02:00:00 - 18.01.2020 02:00:00 (CET)Aubenas, France (7570): Température de l'air -20cm & Température de l'air -100cm: 12.01.2020 02:00:00 - 18.01.2020 02:00:00 (CET)Aubenas, France (7570): Vitesse du vent & gusts: 12.01.2020 02:00:00 - 18.01.2020 02:00:00 (CET)Aubenas, France (7570): Direction du vent: 12.01.2020 02:00:00 - 18.01.2020 02:00:00 (CET)Aubenas, France (7570): reduced air pressure: 12.01.2020 02:00:00 - 18.01.2020 02:00:00 (CET)Aubenas, France (7570): visibility: 12.01.2020 02:00:00 - 18.01.2020 02:00:00 (CET)Aubenas, France (7570): Quantités de précipitations: 12.01.2020 02:00:00 - 18.01.2020 02:00:00 (CET)
Date & Time tt [°C] td [°C] tt 5cm [°C] tt -20cm [°C] tt -100cm [°C] ff [km/h] ff [knt] fx [km/h] fx [knt] dd ppp [hPa] vv [km] rr [mm]
18.01.2020 02:00:00 7,5 0,7 4,3 8,9 10,1 13 7 29 15 NNW 1030,5 20 0,0
18.01.2020 01:00:00 7,7 0,9 6,6 9,0 10,1 14 8 29 16 NNW 1030,5 20 0,0
18.01.2020 00:00:00 7,9 1,9 6,6 8,9 10,1 14 8 24 13 NW 1029,8 20 0,0
17.01.2020 23:00:00 8,1 1,7 6,5 8,9 10,1 10 5 22 12 N 1029,6 20 0,0
17.01.2020 22:00:00 8,4 1,8 7,1 8,9 10,1 14 8 33 18 N 1029,1 20 0,0
17.01.2020 21:00:00 8,7 2,9 6,2 8,9 10,1 11 6 23 13 N 1028,2 20 0,0
17.01.2020 20:00:00 8,4 3,0 6,9 8,9 10,1 9 5 18 10 N 1027,0 20 0,0
17.01.2020 19:00:00 8,5 3,7 7,2 8,9 10,1 8 5 24 13 N 1026,2 20 0,0
17.01.2020 18:00:00 8,4 4,0 6,5 8,9 10,2 15 8 24 13 N 1024,9 20 0,2
17.01.2020 17:00:00 7,9 5,7 6,6 8,8 10,2 16 9 30 16 NNE 1023,9 20 0,8
17.01.2020 16:00:00 8,0 6,9 6,7 8,8 10,2 14 8 42 23 NW 1024,5 3,9 5,9
17.01.2020 15:00:00 9,3 8,8 9,7 8,8 10,2 5 3 8 4 NE 1023,2 20 0,0
17.01.2020 14:00:00 9,3 8,7 9,9 8,8 10,2 3 2 8 4 ESE 1023,8 20 0,0
17.01.2020 13:00:00 8,9 8,4 9,0 8,8 10,2 0 0 7 4 N 1024,8 20 0,0
17.01.2020 12:00:00 8,4 8,3 8,0 8,8 10,1 4 2 11 6 NE 1025,9 7 4,6
17.01.2020 11:00:00 8,1 7,8 7,9 8,7 10,1 7 4 12 6 WNW 1026,5 4,8 3,0
17.01.2020 10:00:00 8,1 7,8 7,9 8,8 10,2 0 0 6 3 N 1026,6 6 0,4
17.01.2020 09:00:00 8,0 7,7 7,6 8,7 10,1 3 2 7 4 N 1026,7 10 0,4
17.01.2020 08:00:00 8,0 7,6 7,6 8,7 10,1 3 2 6 3 N 1027,3 16 0,0
17.01.2020 07:00:00 8,1 7,7 7,7 8,7 10,2 3 2 9 5 NW 1027,3 20 0,0
17.01.2020 06:00:00 8,1 7,7 7,8 8,7 10,1 3 1 11 6 SW 1026,7 20 0,4
17.01.2020 05:00:00 8,2 7,8 7,9 8,7 10,2 6 4 16 9 W 1027,3 7 0,6
17.01.2020 04:00:00 8,6 7,7 8,0 8,7 10,2 11 6 22 12 S 1027,4 8 0,4
17.01.2020 03:00:00 9,0 7,6 8,2 8,7 10,1 8 4 16 9 SW 1027,8 20 0,0
17.01.2020 02:00:00 8,9 7,7 8,2 8,7 10,2 8 5 16 9 S 1027,9 20 0,0
17.01.2020 01:00:00 8,6 7,8 8,1 8,6 10,1 8 4 14 8 SSW 1028,4 20 0,0
17.01.2020 00:00:00 8,6 8,0 8,1 8,6 10,1 5 3 13 7 SSW 1028,6 19 0,0
16.01.2020 23:00:00 8,5 8,2 8,1 8,6 10,1 6 3 11 6 WSW 1028,9 13 0,0
16.01.2020 22:00:00 8,3 8,0 7,9 8,5 10,1 6 3 8 4 WSW 1029,2 17 0,0
16.01.2020 21:00:00 8,2 7,9 7,9 8,6 10,2 0 0 4 2 N 1029,7 4,0 0,0
16.01.2020 20:00:00 8,5 8,1 8,0 8,5 10,1 0 0 5 3 N 1029,8 8 0,4
16.01.2020 19:00:00 8,6 8,2 8,2 8,4 10,1 4 2 21 12 SW 1029,8 20 0,0
16.01.2020 18:00:00 8,8 8,0 8,4 8,4 10,1 2 1 8 5 W 1029,5 11 0,2
16.01.2020 17:00:00 9,2 8,1 8,7 8,4 10,1 6 3 11 6 W 1029,5 18 0,2
16.01.2020 16:00:00 9,9 7,8 9,2 8,4 10,2 6 3 14 8 SW 1029,3 11 0,0
16.01.2020 15:00:00 10,9 7,2 11,4 8,4 10,1 5 3 10 5 WSW 1029,0 20 0,0
16.01.2020 14:00:00 11,7 7,4 12,8 8,4 10,1 7 4 14 8 SW 1029,3 20 0,0
16.01.2020 13:00:00 10,9 7,4 11,6 8,4 10,1 7 4 11 6 SSW 1030,1 20 0,0
16.01.2020 12:00:00 9,7 7,0 11,0 8,3 10,1 5 3 10 5 SSW 1030,9 20 0,0
16.01.2020 11:00:00 8,8 7,4 9,1 8,3 10,1 3 2 9 5 S 1031,2 20 0,0
16.01.2020 10:00:00 7,6 7,5 7,0 8,3 10,1 3 1 6 3 ENE 1031,1 7 0,0
16.01.2020 09:00:00 7,0 6,9 6,0 8,3 10,1 2 1 4 2 W 1030,8 8 0,0
16.01.2020 08:00:00 6,8 6,5 5,3 8,3 10,1 0 0 3 2 N 1030,6 6 0,0
16.01.2020 07:00:00 7,4 7,0 6,6 8,3 10,1 2 1 3 2 NW 1030,2 16 0,0
16.01.2020 06:00:00 7,4 7,0 6,4 8,2 10,1 2 1 3 2 E 1029,9 13 0,0
16.01.2020 05:00:00 7,8 7,2 6,8 8,2 10,1 3 2 5 3 N 1030,0 18 0,0
16.01.2020 04:00:00 7,4 6,7 5,8 8,2 10,1 2 1 4 2 NE 1030,3 19 0,0
16.01.2020 03:00:00 7,7 7,1 6,7 8,2 10,1 0 0 3 2 N 1030,5 20 0,0
16.01.2020 02:00:00 8,2 7,3 7,5 8,2 10,1 0 0 7 4 N 1030,3 20 0,0
16.01.2020 01:00:00 8,8 7,4 7,9 8,1 10,1 5 3 9 5 WSW 1030,4 20 0,0
16.01.2020 00:00:00 8,4 7,5 7,8 8,1 10,2 3 2 5 3 NE 1030,6 20 0,0
15.01.2020 23:00:00 8,4 7,5 7,7 8,1 10,1 3 2 9 5 N 1030,5 20 0,0
15.01.2020 22:00:00 8,9 7,7 8,0 8,0 10,1 0 0 10 6 N 1030,2 20 0,0
15.01.2020 21:00:00 9,1 7,9 8,0 8,0 10,1 6 4 8 5 WSW 1030,0 20 0,0
15.01.2020 20:00:00 9,4 7,8 8,7 8,0 10,1 3 2 10 5 SW 1029,7 20 0,0
15.01.2020 19:00:00 9,7 8,0 9,1 8,0 10,1 8 4 13 7 SSE 1028,9 20 0,0
15.01.2020 18:00:00 9,7 8,0 9,1 7,9 10,1 7 4 13 7 SSE 1028,4 20 0,0
15.01.2020 17:00:00 10,1 8,0 9,6 7,9 10,1 9 5 21 12 SSE 1028,0 20 0,0
15.01.2020 16:00:00 10,9 8,5 10,3 7,9 10,1 9 5 21 11 SSE 1027,4 20 0,0
15.01.2020 15:00:00 10,6 8,4 10,3 7,9 10,1 10 5 21 11 S 1027,2 20 0,0
15.01.2020 14:00:00 10,3 8,4 10,3 7,8 10,1 10 5 23 12 SSW 1026,8 20 0,0
15.01.2020 13:00:00 10,4 8,5 9,8 7,8 10,1 12 6 28 15 S 1027,0 20 0,0
15.01.2020 12:00:00 10,1 8,4 9,5 7,8 10,1 14 8 23 12 S 1027,1 20 0,0
15.01.2020 11:00:00 9,1 8,3 7,8 7,8 10,1 8 4 13 7 SW 1027,1 20 0,0
15.01.2020 10:00:00 8,1 7,5 7,6 7,8 10,2 6 3 12 7 SW 1026,5 20 0,0
15.01.2020 09:00:00 7,9 7,3 7,5 7,7 10,1 7 4 23 13 SW 1026,2 20 0,2
15.01.2020 08:00:00 8,0 7,2 7,4 7,7 10,1 14 8 23 13 SSW 1025,9 17 0,2
15.01.2020 07:00:00 8,7 6,7 7,7 7,7 10,2 9 5 28 15 S 1025,6 13 0,2
15.01.2020 06:00:00 8,9 6,0 7,9 7,7 10,2 9 5 14 8 S 1025,2 20 0,0
15.01.2020 05:00:00 9,1 6,0 8,3 7,7 10,1 10 5 20 11 WSW 1025,1 20 0,0
15.01.2020 04:00:00 8,6 6,0 7,7 7,6 10,1 8 4 29 15 SW 1025,4 20 0,0
15.01.2020 03:00:00 8,3 5,6 7,3 7,7 10,2 3 2 27 15 SSW 1025,7 20 0,0
15.01.2020 02:00:00 9,0 5,7 8,0 7,6 10,1 11 6 23 12 SW 1025,4 20 0,0
15.01.2020 01:00:00 8,5 5,9 6,8 7,6 10,1 10 5 24 13 S 1025,7 20 0,0
15.01.2020 00:00:00 8,1 6,2 7,4 7,6 10,1 5 3 15 8 SW 1026,2 20 0,0
14.01.2020 23:00:00 8,2 6,7 7,5 7,5 10,1 6 3 11 6 SW 1025,8 20 0,0
14.01.2020 22:00:00 8,3 6,6 7,1 7,5 10,2 7 4 11 6 S 1025,8 20 0,0
14.01.2020 21:00:00 8,0 6,3 7,2 7,5 10,2 2 1 9 5 SSW 1025,7 20 0,0
14.01.2020 20:00:00 8,1 6,2 7,6 7,4 10,2 5 3 10 5 SW 1025,6 20 0,0
14.01.2020 19:00:00 8,6 6,0 7,8 7,4 10,2 4 2 8 4 SW 1025,1 20 0,0
14.01.2020 18:00:00 8,6 6,2 7,7 7,4 10,2 4 2 7 4 W 1024,5 20 0,0
14.01.2020 17:00:00 8,9 6,0 8,6 7,4 10,2 0 0 4 2 N 1024,2 20 0,0
14.01.2020 16:00:00 9,2 5,9 9,4 7,4 10,2 4 2 7 4 WNW 1024,2 20 0,0
14.01.2020 15:00:00 9,2 5,6 9,9 7,4 10,2 3 2 7 4 WSW 1024,3 20 0,0
14.01.2020 14:00:00 9,0 5,7 9,7 7,4 10,2 3 2 10 6 SW 1024,6 20 0,0
14.01.2020 13:00:00 8,9 5,8 8,8 7,3 10,2 6 3 9 5 WSW 1025,1 20 0,0
14.01.2020 12:00:00 8,2 5,7 8,2 7,3 10,2 4 2 8 4 WSW 1025,6 20 0,0
14.01.2020 11:00:00 7,1 5,4 6,2 7,3 10,2 0 0 7 4 N 1025,7 20 0,0
14.01.2020 10:00:00 6,3 5,4 5,6 7,3 10,2 4 2 7 4 W 1025,3 20 0,0
14.01.2020 09:00:00 5,7 4,7 5,1 7,3 10,2 3 1 7 4 ENE 1024,7 20 0,0
14.01.2020 08:00:00 5,5 4,5 5,0 7,3 10,3 0 0 5 3 N 1024,4 20 0,0
14.01.2020 07:00:00 5,3 4,3 5,0 7,3 10,2 4 2 7 4 N 1024,5 16 0,0
14.01.2020 06:00:00 5,5 4,0 5,0 7,3 10,3 3 2 9 5 E 1024,0 20 0,0
14.01.2020 05:00:00 6,2 4,0 4,6 7,3 10,3 6 3 11 6 W 1023,5 20 0,0
14.01.2020 04:00:00 4,8 3,6 4,2 7,3 10,2 0 0 6 3 N 1024,0 20 0,0
14.01.2020 03:00:00 5,0 3,7 4,7 7,3 10,3 3 1 7 4 NNE 1024,3 20 0,0
14.01.2020 02:00:00 5,6 3,9 4,1 7,3 10,3 6 4 10 5 NW 1024,8 20 0,0
14.01.2020 01:00:00 5,1 3,9 0,8 7,3 10,3 4 2 8 4 WSW 1024,8 20 0,0
14.01.2020 00:00:00 4,3 2,6 1,2 7,3 10,3 0 0 8 4 N 1025,1 20 0,0
13.01.2020 23:00:00 4,6 3,1 2,9 7,3 10,3 5 3 7 4 S 1024,6 20 0,0
13.01.2020 22:00:00 4,6 2,8 2,8 7,2 10,3 2 1 5 3 ENE 1024,2 20 0,0
13.01.2020 21:00:00 5,1 3,1 4,1 7,2 10,3 0 0 5 3 N 1024,3 20 0,0
13.01.2020 20:00:00 4,7 3,2 3,1 7,2 10,3 2 1 4 2 ENE 1024,8 20 0,0
13.01.2020 19:00:00 4,1 2,8 0,0 7,2 10,3 2 1 6 4 NE 1024,9 20 0,0
13.01.2020 18:00:00 5,7 2,9 0,8 7,2 10,3 4 2 10 5 W 1025,0 20 0,0
13.01.2020 17:00:00 7,3 3,0 5,8 7,3 10,3 8 4 10 6 W 1024,5 20 0,0
13.01.2020 16:00:00 9,0 3,2 9,1 7,2 10,3 6 3 13 7 SW 1024,1 20 0,0
13.01.2020 15:00:00 9,6 2,7 11,4 7,3 10,3 8 4 14 8 W 1024,7 20 0,0
13.01.2020 14:00:00 9,5 3,2 11,8 7,3 10,3 6 4 11 6 WSW 1024,9 20 0,0
13.01.2020 13:00:00 8,8 3,0 12,2 7,3 10,3 7 4 11 6 SSW 1026,0 20 0,0
13.01.2020 12:00:00 7,1 2,0 6,9 7,4 10,3 3 1 6 3 NW 1026,9 20 0,0
13.01.2020 11:00:00 4,8 0,7 6,6 7,4 10,3 0 0 4 2 N 1027,8 20 0,0
13.01.2020 10:00:00 3,1 0,2 1,5 7,4 10,3 0 0 4 2 N 1027,7 20 0,0
13.01.2020 09:00:00 -0,3 -1,0 -2,9 7,5 10,3 3 1 5 3 S 1027,8 20 0,0
13.01.2020 08:00:00 -0,5 -1,8 -3,2 7,5 10,3 3 2 4 2 S 1027,5 20 0,0
13.01.2020 07:00:00 -0,7 -1,7 -2,8 7,5 10,3 0 0 6 3 N 1027,6 20 0,0
13.01.2020 06:00:00 -0,8 -2,2 -2,4 7,6 10,3 3 2 5 3 ENE 1027,6 20 0,0
13.01.2020 05:00:00 0,7 -1,4 -1,7 7,6 10,3 0 0 5 3 N 1027,3 20 0,0
13.01.2020 04:00:00 1,1 -1,5 -2,8 7,6 10,3 3 1 6 4 W 1027,5 20 0,0
13.01.2020 03:00:00 0,4 -1,5 -3,1 7,6 10,3 0 0 7 4 N 1028,0 20 0,0
13.01.2020 02:00:00 0,0 -1,6 -2,6 7,6 10,3 2 1 7 4 NNE 1028,3 20 0,0
13.01.2020 01:00:00 1,1 -0,2 -2,5 7,6 10,3 2 1 8 5 WNW 1028,7 20 0,0
13.01.2020 00:00:00 0,7 -0,5 -2,8 7,6 10,3 0 0 5 3 N 1029,3 20 0,0
12.01.2020 23:00:00 1,0 -0,5 -2,4 7,6 10,3 3 2 5 3 ENE 1029,7 20 0,0
12.01.2020 22:00:00 2,5 -0,1 -1,3 7,6 10,3 3 2 12 6 NNW 1029,6 20 0,0
12.01.2020 21:00:00 3,6 0,8 -0,4 7,6 10,3 5 3 10 6 NNW 1029,8 20 0,0
12.01.2020 20:00:00 4,3 1,2 0,2 7,6 10,3 5 3 9 5 NNE 1029,9 20 0,0
12.01.2020 19:00:00 5,3 1,6 1,5 7,6 10,3 6 4 11 6 NNE 1029,6 20 0,0
12.01.2020 18:00:00 6,6 0,9 1,9 7,6 10,3 4 2 9 5 N 1029,3 20 0,0
12.01.2020 17:00:00 10,8 1,3 9,5 7,7 10,3 4 2 7 4 N 1028,7 20 0,0
12.01.2020 16:00:00 12,7 1,1 14,6 7,7 10,3 0 0 7 4 N 1028,6 20 0,0
12.01.2020 15:00:00 12,9 0,9 15,9 7,7 10,3 2 1 6 4 S 1028,7 20 0,0
12.01.2020 14:00:00 10,5 -0,4 13,7 7,8 10,3 3 2 9 5 W 1029,6 20 0,0
12.01.2020 13:00:00 8,8 -1,1 12,6 7,8 10,3 4 2 8 4 WNW 1030,8 20 0,0
12.01.2020 12:00:00 8,2 0,2 11,3 7,9 10,3 5 3 7 4 SSE 1031,8 20 0,0
12.01.2020 11:00:00 6,0 -0,5 7,0 7,9 10,3 0 0 4 2 N 1032,9 20 0,0
12.01.2020 10:00:00 2,8 -1,2 0,7 8,0 10,4 0 0 6 4 N 1033,1 20 0,0
12.01.2020 09:00:00 -1,4 -3,1 -4,4 8,0 10,4 6 3 8 4 NE 1032,9 20 0,0
12.01.2020 08:00:00 -2,9 -3,9 -4,9 8,1 10,4 5 3 7 4 NNE 1032,9 20 0,0
12.01.2020 07:00:00 -2,6 -3,6 -4,2 8,1 10,4 5 3 8 5 NE 1032,4 20 0,0
12.01.2020 06:00:00 -2,8 -3,9 -4,8 8,1 10,3 4 2 6 4 NE 1032,2 20 0,0
12.01.2020 05:00:00 -1,5 -3,2 -4,3 8,1 10,3 0 0 7 4 N 1032,0 20 0,0
12.01.2020 04:00:00 -0,4 -2,0 -4,3 8,2 10,4 4 2 6 4 NNW 1032,0 20 0,0
12.01.2020 03:00:00 0,9 -1,5 -3,4 8,2 10,3 5 3 13 7 NNW 1031,9 20 0,0
12.01.2020 02:00:00 0,6 -2,1 -2,1 8,2 10,3 6 3 10 5 N 1031,9 20 0,0

tt = Température de l'air
td = dewpoint
tt 5cm = Température de l'air 5cm
tt -20cm = Température de l'air -20cm
tt -100cm = Température de l'air -100cm
ff = Vitesse du vent
fx = gusts
dd = Direction du vent
ppp = reduced air pressure
vv = visibility
rr = Quantités de précipitations

stations d'obs. à proximité